星链-32243 (STARLINK-32243)

导读 | 星芒AI

STARLINK-32243 是 SpaceX Starlink 卫星互联网计划中的一颗低轨卫星,属于 Starlink 群体部署的一部分。该卫星由 SpaceX 制造并发射,旨在为全球用户提供高速互联网接入服务。它运行在约 550 公里的近地轨道上,采用先进的通信技术,支持宽带数据传输。Starlink 项目致力于改善偏远地区的网络覆盖,推动全球互联网普及。STARLINK-32243 的运行有助于增强 Starlink 网络的稳定性和覆盖范围。

基本信息
目录编号:
60367
目录名称:
STARLINK-32243
国际标识:
2024-138N
轨道中心:
EARTH
卫星名称:
星链-32243 (STARLINK-32243)
卫星全名:
星链-32243 (STARLINK-32243)
卫星状态:
在轨 (已飞行456 天)
发射日期:
2024-08-04 UTC
国别 :
美国 (US)
星等 :
--
轨道信息
数据来源 国际轨道数据
星历时间: 2025-11-02T07:30:28+0800
1天前
查看轨道信息
半长轴: 6853.402km
偏心率: 0.0001315
轨道倾角: 53.159°
近地点辐角 96.906°
升交点赤经 182.870°
平近点角 263.209°
近地点: 474.365km
远地点: 476.169km
周期: 94.106分钟
每日圈数: 15.301836
详细信息
卫星平台:
Starlink v2.0 mini
运营商:
太空探索技术公司
运营商所在国:
美国
制造商(研发单位):
太空探索技术公司
制造商所在国:
美国
使用方式:
暂无
卫星简介
星链(Starlink)计划是由太空探索技术公司(SpaceX)提出的一个巨型低轨卫星互联网星座项目,计划在2019年至2024年间在太空搭建由约1.2万颗卫星组成的“星链”网络,其中1584颗将部署在地球上空550千米处的近地轨道,并从2020年开始工作。该卫星仍在工作。
2D轨道图
3D轨道图
轨道高度分析图
轨道倾角分析图
轨道综合分析图
查看轨道综合分析图